Wetbulb
59.42 59.03 58.90 58.92 58.61 58.80 58.82 59.01 59.18 59.50 59.80 60.16 60.36 60.28 60.23 60.64 60.09 64.22 61.55 66.30 68.28 70.36 69.98 67.71 67.39 67.20 67.85 66.35 67.25 67.20 60.99 59.35 57.58 57.86 59.36 62.48 61.15 64.32 65.38 65.19 66.11 66.77 66.68 68.27 71.01
58.59 58.53 58.43 58.49 58.38 58.35 58.23 58.48 58.75 59.10 59.35 59.66 59.83 59.79 59.80 60.18 62.95 62.07 65.81 68.81 69.96 69.99 67.05 64.60 63.35 65.44 65.82 65.05 66.94 63.85 60.70 58.45 61.19 61.41 60.87 61.59 62.01 62.62 63.76 64.00 64.56 65.58 68.93 70.36 70.72
58.10 58.14 57.87 57.87 58.14 57.76 58.00 58.09 58.34 58.89 59.25 59.40 59.35 59.59 59.75 61.68 61.98 62.82 69.04 70.99 70.25 70.62 64.53 63.89 64.45 64.09 62.77 64.53 64.03 62.83 59.21 61.61 61.16 62.49 63.06 62.11 61.63 63.90 62.75 61.73 64.15 63.49 66.49 69.37 69.73
57.48 57.69 57.56 57.32 57.63 57.42 57.66 57.96 58.20 58.76 58.95 58.85 58.99 59.28 59.80 64.26 57.00 66.25 71.85 70.82 71.09 69.57 64.01 62.92 63.20 61.49 60.05 58.81 62.51 60.49 61.82 63.34 63.21 63.14 63.15 61.97 63.86 63.30 64.40 65.03 66.87 66.60 68.73 69.42 69.19
56.81 56.92 56.70 56.76 56.88 56.90 57.17 57.31 57.76 57.90 57.97 58.32 58.53 59.32 64.38 59.63 61.83 70.26 71.82 70.95 68.98 64.85 62.59 62.40 61.61 61.25 58.77 59.11 60.73 60.70 61.61 63.80 64.21 63.32 63.97 64.33 63.12 63.44 64.61 67.08 67.59 67.56 68.45 68.87 69.27
56.20 56.16 56.02 56.21 56.45 56.59 56.66 56.67 56.79 56.94 57.57 57.96 58.60 58.60 61.50 57.90 65.57 68.79 68.12 67.45 65.33 63.93 63.01 63.54 62.51 62.66 60.29 59.20 59.39 61.82 62.63 63.15 64.33 64.22 64.39 62.67 63.04 64.25 65.51 67.92 66.50 66.67 66.94 67.76 68.04
55.97 55.80 55.58 55.77 56.17 56.34 56.47 56.20 56.03 57.02 58.92 58.80 59.49 63.79 58.06 60.33 65.50 68.60 66.76 64.91 64.73 64.31 63.17 64.29 64.48 61.86 61.00 58.73 63.06 62.89 60.69 62.03 63.20 63.54 63.09 63.95 61.09 62.03 65.86 67.02 65.45 65.69 66.37 66.80 67.51
55.77 55.31 55.48 55.61 55.98 56.32 56.56 56.10 56.52 59.45 59.52 59.58 60.61 62.35 58.35 61.22 64.99 64.93 66.37 64.73 65.03 65.32 64.47 64.84 64.42 62.41 60.60 61.96 61.56 60.46 60.28 56.86 62.08 62.66 63.09 62.76 58.24 63.44 65.75 66.39 65.19 65.11 65.71 66.44 67.74
55.67 55.15 55.03 55.47 55.90 56.20 55.79 55.36 58.04 61.17 60.95 60.89 63.75 59.01 58.21 61.23 61.49 64.20 65.20 62.96 64.43 65.00 65.15 62.91 62.86 60.83 60.36 57.94 57.86 58.65 54.48 55.01 57.81 63.22 62.45 61.54 59.10 63.47 65.18 64.52 64.36 65.79 66.45 66.75 67.12
55.33 54.88 54.71 55.14 55.65 55.59 54.51 55.52 59.15 59.13 62.95 63.49 61.50 56.53 59.31 59.76 61.78 62.48 64.22 63.25 62.76 62.86 62.22 61.84 61.30 59.13 59.38 57.38 52.05 53.83 54.27 55.85 55.57 61.15 61.44 59.84 59.43 62.47 64.39 63.38 63.73 65.00 65.91 66.22 66.82
55.15 54.73 54.50 55.05 55.23 54.40 58.09 60.06 58.48 57.28 58.15 55.19 55.16 56.08 57.94 60.26 61.32 61.99 63.45 62.92 62.76 61.62 58.40 60.02 57.19 55.78 55.89 57.73 57.28 56.61 55.47 54.55 58.47 61.76 60.45 59.42 59.37 60.80 63.02 63.10 63.77 64.76 65.05 65.96 67.45
54.81 54.79 54.64 54.88 54.63 54.09 59.06 56.22 54.95 56.29 53.47 56.01 55.71 55.53 57.06 58.38 57.77 60.73 62.94 60.09 60.02 57.59 58.56 57.81 55.46 57.19 57.43 56.98 56.82 56.16 55.19 55.39 58.73 61.06 60.27 59.55 58.55 60.85 61.93 63.21 64.07 63.95 64.83 66.32 66.60
53.96 54.00 54.59 54.59 53.98 59.26 57.33 54.90 57.10 58.02 54.18 53.75 55.51 55.03 56.73 58.38 58.23 59.61 61.61 60.40 58.38 56.83 57.33 55.92 57.00 57.05 56.33 56.00 55.33 56.24 55.02 55.56 55.96 59.71 60.55 59.08 57.31 59.08 61.81 63.19 63.76 64.29 66.26 66.09 66.00
53.49 53.80 54.20 53.03 56.60 56.16 57.07 56.52 58.47 58.67 52.49 52.17 52.87 55.20 56.80 58.92 57.08 61.21 61.87 60.14 58.01 56.20 56.39 56.54 57.77 55.82 55.78 55.17 55.71 54.06 57.42 57.37 57.07 56.34 53.03 59.32 50.93 57.51 59.32 60.79 61.92 63.41 63.53 65.11 66.04
53.34 53.75 53.78 52.46 56.44 54.89 55.66 57.51 59.55 58.24 46.05 53.61 52.53 58.85 58.11 57.61 57.91 58.50 61.70 59.93 56.74 56.42 56.19 55.00 55.16 55.23 54.69 55.45 57.35 55.39 58.39 58.15 57.66 56.63 56.24 56.06 53.25 56.59 59.85 58.57 60.45 62.92 63.90 65.18 66.52
53.29 53.63 52.41 56.36 57.59 57.12 57.13 58.66 59.71 52.79 45.57 51.22 53.18 53.51 54.43 57.13 56.97 58.31 58.72 60.50 59.58 56.71 56.68 56.38 58.02 56.48 56.43 59.02 57.67 59.67 58.40 58.39 58.24 56.30 50.91 55.18 53.89 53.70 56.46 58.32 60.16 62.94 63.93 64.60 65.38
53.17 52.58 52.06 56.92 55.95 57.42 59.60 59.86 53.33 50.09 55.51 49.61 50.39 53.55 54.11 54.21 55.35 56.13 56.24 56.24 54.67 52.34 53.03 55.37 55.33 57.01 57.90 57.20 59.70 58.94 57.81 51.13 49.36 48.92 48.15 56.10 53.70 56.10 59.21 60.55 60.64 61.46 62.39 64.68 65.58
51.56 50.78 55.54 57.10 60.24 59.98 60.57 56.68 50.53 52.33 52.61 54.82 51.83 53.28 52.19 54.20 54.57 54.92 54.68 54.20 56.61 55.51 54.29 51.39 49.95 55.10 57.59 56.45 56.30 57.19 57.21 51.23 45.54 45.98 48.08 55.69 51.23 55.62 61.11 63.26 63.78 63.79 63.62 65.64 65.99
50.05 57.82 58.24 61.88 60.83 60.75 57.29 50.85 54.18 53.70 53.85 52.64 51.95 50.85 50.94 52.86 52.96 54.15 54.16 53.96 55.74 56.72 53.03 52.59 51.57 56.33 57.37 59.00 58.69 56.82 54.36 57.99 53.61 53.86 50.10 53.68 55.49 59.46 61.54 61.88 62.67 62.87 64.50 65.44 66.06
53.30 55.09 56.51 61.30 61.51 59.38 53.74 48.14 54.24 55.34 54.10 54.28 50.51 51.90 50.52 50.94 51.12 52.18 52.91 55.07 55.03 56.91 58.68 55.25 51.49 54.79 57.65 59.37 59.25 57.86 59.06 53.43 54.41 46.89 45.46 49.66 51.01 53.45 57.65 59.37 61.01 62.18 63.98 64.90 65.33
54.35 51.83 58.06 62.76 60.91 57.60 50.37 51.29 51.32 53.87 55.01 54.90 54.32 54.54 54.79 53.41 52.23 51.91 52.00 54.07 55.75 55.57 58.00 56.68 55.22 53.47 55.71 55.22 54.79 57.08 55.63 56.10 56.34 53.76 47.98 45.84 49.31 59.54 59.88 61.52 61.78 63.01 64.02 64.27 64.12
53.38 49.48 57.31 62.00 55.92 57.17 52.02 52.17 49.51 53.65 56.73 56.56 57.17 56.62 56.41 56.04 53.80 51.85 51.41 54.48 57.20 57.61 54.68 57.46 57.47 52.24 52.75 58.56 59.37 58.36 57.03 56.92 52.84 51.28 53.38 52.27 51.01 61.95 62.60 62.98 63.59 63.47 64.29 64.63 64.25
51.01 52.01 59.55 61.24 52.37 53.38 54.40 52.37 53.58 54.23 55.83 56.35 56.10 57.35 59.49 58.23 55.63 56.36 53.83 56.11 59.84 58.00 57.78 58.96 56.23 51.01 52.51 56.84 58.84 56.86 57.96 58.41 57.28 57.63 52.23 50.13 51.20 61.96 62.87 63.01 63.64 63.56 64.00 63.45 63.37
51.59 49.06 54.87 59.06 58.53 55.30 52.98 51.80 52.63 57.23 56.33 57.20 57.08 59.22 58.92 58.25 60.23 57.47 56.22 58.89 60.35 58.91 57.97 60.64 59.26 54.74 49.29 52.40 54.59 53.92 55.51 56.38 56.95 52.59 51.86 52.22 54.31 59.70 61.49 62.37 63.51 63.68 64.11 62.65 62.32
52.32 52.44 55.44 51.92 54.08 55.61 55.50 53.55 51.95 54.00 57.51 58.27 57.63 58.41 58.41 56.01 56.89 57.23 58.30 58.69 60.45 58.24 60.58 62.29 56.84 56.88 54.96 55.69 55.80 54.24 53.69 54.80 54.70 55.06 52.52 53.44 55.40 59.12 62.29 63.19 63.65 63.91 63.03 61.59 61.53
52.64 53.32 55.75 57.14 54.42 54.42 51.29 53.80 52.01 55.17 56.72 55.77 57.28 59.06 59.89 58.15 59.63 57.65 59.69 58.89 58.28 61.38 61.91 62.63 57.50 57.27 54.57 56.28 55.43 53.51 54.83 55.73 56.15 56.45 56.02 56.55 56.92 62.78 64.17 64.41 63.52 62.28 61.95 60.75 61.55
56.46 56.50 55.48 49.56 54.68 53.78 54.41 54.10 53.69 56.28 58.10 58.69 58.87 59.76 59.70 59.55 60.61 62.14 62.91 62.78 62.15 61.38 61.56 61.56 59.96 56.39 51.57 55.76 54.99 51.88 54.80 55.73 56.28 57.71 57.78 55.41 59.53 63.60 63.13 62.94 62.30 61.82 61.98 61.56 62.08
MSLP
1019.87 1019.38 1018.82 1018.38 1017.79 1017.23 1016.71 1016.20 1015.91 1015.39 1014.97 1014.61 1014.19 1014.06 1013.74 1013.25 1012.70 1012.19 1010.08 1009.64 1009.80 1010.56 1010.39 1010.02 1009.51 1008.93 1008.52 1007.63 1007.66 1007.48 1005.56 1004.66 1004.89 1005.15 1004.92 1005.90 1006.31 1007.20 1007.86 1008.06 1008.35 1008.86 1009.08 1009.98 1011.35
1019.80 1019.31 1018.88 1018.28 1017.82 1017.17 1016.55 1016.04 1015.67 1015.29 1014.69 1014.39 1013.84 1013.81 1013.61 1013.20 1011.60 1010.01 1009.66 1009.87 1010.25 1010.33 1009.63 1008.92 1008.32 1008.34 1007.26 1007.18 1007.11 1006.65 1004.86 1005.04 1005.55 1005.57 1005.33 1005.73 1006.14 1007.21 1007.62 1008.01 1008.49 1009.07 1009.99 1010.67 1011.55
1020.22 1019.17 1018.63 1018.38 1017.65 1017.10 1016.33 1015.81 1015.37 1014.95 1014.55 1014.11 1013.65 1013.51 1013.28 1012.78 1010.65 1008.99 1009.85 1010.17 1010.34 1010.19 1009.16 1008.71 1008.19 1007.76 1006.85 1006.71 1006.47 1006.13 1005.26 1005.51 1005.66 1006.30 1006.16 1005.89 1006.34 1007.20 1007.34 1007.64 1008.05 1008.35 1009.76 1010.69 1011.13
1020.37 1019.74 1018.73 1018.17 1017.46 1016.78 1016.14 1015.49 1015.09 1014.57 1014.20 1013.85 1013.51 1013.24 1013.02 1011.85 1009.39 1009.30 1009.99 1010.13 1010.31 1009.53 1008.97 1008.35 1007.88 1006.81 1006.01 1005.61 1006.09 1005.61 1005.69 1005.95 1006.03 1006.65 1006.64 1006.45 1006.91 1007.29 1007.87 1008.60 1009.06 1009.09 1009.53 1010.41 1010.78
1020.36 1019.57 1018.70 1017.78 1017.35 1016.43 1015.81 1015.09 1014.69 1014.24 1013.75 1013.55 1013.31 1013.12 1012.74 1010.47 1008.52 1009.61 1010.10 1010.31 1010.17 1009.59 1008.60 1007.87 1007.44 1006.45 1005.63 1005.58 1005.83 1005.75 1005.69 1006.30 1006.69 1006.97 1007.00 1007.38 1007.41 1007.83 1008.67 1009.21 1009.39 1009.43 1009.77 1010.04 1010.26
1020.27 1019.48 1018.59 1017.65 1016.93 1016.21 1015.46 1014.70 1014.22 1013.79 1013.32 1013.18 1013.05 1013.01 1011.72 1009.42 1008.68 1009.17 1009.31 1009.67 1008.97 1008.92 1008.11 1007.76 1006.99 1006.79 1006.05 1005.85 1005.84 1005.85 1006.03 1006.25 1006.58 1006.91 1007.31 1007.52 1007.77 1008.20 1009.15 1009.51 1009.48 1009.71 1009.83 1010.04 1010.31
1020.23 1019.35 1018.41 1017.38 1016.68 1015.95 1015.18 1014.47 1013.80 1013.25 1012.89 1012.78 1012.74 1012.29 1010.37 1008.45 1008.57 1008.87 1009.05 1008.58 1008.51 1008.36 1007.69 1007.55 1007.30 1006.74 1006.27 1005.85 1006.26 1006.07 1005.76 1006.17 1006.43 1006.92 1007.07 1007.88 1007.73 1008.32 1009.44 1009.52 1009.52 1009.59 1009.90 1010.17 1010.14
1020.23 1019.27 1018.40 1017.43 1016.57 1015.69 1015.01 1014.22 1013.40 1012.89 1012.63 1012.60 1012.49 1011.38 1008.79 1008.48 1008.59 1008.60 1008.48 1008.07 1008.20 1008.10 1007.92 1007.68 1007.26 1006.55 1006.25 1006.39 1006.21 1005.86 1005.69 1004.81 1006.15 1006.78 1007.44 1007.85 1007.07 1008.83 1009.49 1009.44 1009.68 1009.89 1009.94 1009.94 1009.86
1020.21 1019.39 1018.45 1017.53 1016.33 1015.43 1014.74 1013.92 1013.29 1012.88 1012.66 1012.54 1012.03 1010.42 1008.01 1009.08 1008.29 1007.75 1007.88 1007.35 1007.49 1007.56 1007.57 1007.65 1006.92 1006.11 1006.01 1005.35 1004.91 1005.14 1004.29 1004.91 1005.37 1006.79 1007.00 1007.31 1006.80 1008.62 1009.35 1009.51 1009.56 1009.63 1009.73 1009.73 1009.73
1020.18 1019.37 1018.45 1017.53 1016.30 1015.25 1014.28 1013.64 1012.99 1012.87 1012.45 1011.60 1010.96 1010.02 1008.02 1007.57 1007.82 1007.77 1007.80 1007.73 1007.01 1006.79 1006.70 1006.44 1005.72 1005.03 1004.41 1004.28 1003.64 1004.17 1004.32 1004.70 1005.19 1006.09 1006.59 1006.61 1006.87 1008.12 1009.20 1009.38 1009.43 1009.64 1009.71 1009.49 1009.47
1020.22 1019.39 1018.49 1017.48 1016.29 1015.21 1013.47 1012.40 1012.58 1011.79 1010.66 1009.80 1009.35 1008.80 1008.12 1008.04 1007.96 1007.22 1007.39 1007.29 1006.86 1006.43 1005.72 1005.90 1005.31 1004.58 1005.21 1005.23 1005.11 1004.93 1004.85 1004.86 1005.44 1006.46 1006.62 1006.69 1006.76 1007.41 1008.21 1008.74 1009.06 1009.24 1009.37 1009.29 1009.35
1020.22 1019.51 1018.57 1017.30 1016.23 1014.87 1014.21 1012.60 1013.75 1013.92 1011.42 1009.78 1009.33 1008.90 1008.53 1008.33 1007.26 1006.83 1007.15 1006.80 1006.36 1005.79 1005.93 1005.75 1004.77 1005.39 1005.54 1005.44 1005.27 1005.03 1004.79 1004.35 1005.29 1006.47 1006.75 1006.68 1006.43 1007.21 1007.78 1008.33 1008.53 1008.79 1008.95 1008.93 1008.95
1020.36 1019.63 1018.69 1017.18 1015.95 1014.57 1013.83 1013.77 1013.93 1013.68 1011.60 1009.26 1008.60 1007.97 1007.55 1007.84 1006.74 1006.12 1006.61 1006.15 1006.01 1005.86 1005.55 1005.30 1004.92 1005.86 1005.61 1005.05 1005.03 1004.59 1004.96 1004.80 1005.29 1006.31 1006.63 1006.46 1006.09 1006.82 1007.80 1008.17 1008.35 1008.37 1008.80 1008.82 1009.02
1020.42 1019.76 1019.02 1017.19 1015.85 1014.87 1013.60 1013.98 1013.66 1013.65 1010.70 1008.61 1007.93 1007.08 1007.35 1007.04 1006.53 1006.27 1006.33 1006.15 1006.03 1005.70 1005.60 1005.44 1005.45 1005.77 1005.45 1005.06 1005.39 1004.93 1005.51 1005.57 1005.70 1005.87 1005.54 1006.72 1005.39 1006.45 1007.18 1007.61 1007.94 1007.77 1008.05 1008.36 1008.71
1020.33 1019.83 1019.23 1018.74 1016.60 1014.41 1014.04 1013.94 1013.61 1013.41 1009.26 1008.11 1007.41 1007.30 1006.61 1006.38 1005.93 1006.16 1006.45 1006.19 1005.81 1005.60 1006.29 1005.12 1005.44 1005.41 1005.29 1005.39 1005.85 1005.70 1006.12 1005.89 1006.07 1005.97 1006.47 1006.03 1005.58 1005.89 1006.91 1007.07 1007.43 1007.61 1007.94 1008.21 1008.50
1020.11 1019.74 1019.19 1017.47 1016.12 1014.45 1014.26 1013.86 1013.33 1011.35 1008.03 1007.13 1006.63 1006.53 1006.40 1006.18 1006.07 1006.17 1006.16 1006.43 1006.43 1006.03 1005.99 1005.57 1005.91 1005.96 1005.54 1006.31 1006.33 1006.66 1006.57 1006.48 1006.22 1006.08 1005.32 1006.16 1006.32 1004.99 1006.07 1007.12 1007.05 1007.37 1007.55 1007.91 1007.97
1019.69 1019.17 1018.96 1016.77 1014.34 1014.47 1014.13 1012.77 1010.97 1008.35 1007.61 1006.70 1006.05 1006.05 1005.64 1005.77 1005.83 1005.91 1005.83 1005.93 1005.80 1005.77 1005.24 1005.17 1005.08 1005.73 1006.12 1006.02 1006.77 1006.75 1006.30 1005.97 1005.85 1006.01 1005.49 1006.51 1006.30 1005.35 1006.43 1006.99 1007.26 1007.36 1007.23 1007.49 1007.47
1019.21 1018.17 1016.90 1015.58 1014.70 1014.59 1013.44 1011.53 1009.25 1007.67 1006.69 1006.61 1006.04 1005.61 1005.41 1005.64 1005.74 1005.87 1005.81 1005.43 1005.95 1005.71 1005.09 1004.71 1004.77 1005.37 1005.92 1005.79 1005.83 1006.05 1006.20 1005.69 1005.33 1005.40 1005.40 1006.23 1005.32 1005.78 1006.62 1007.17 1007.38 1007.32 1007.27 1007.46 1007.60
1018.51 1015.91 1014.99 1014.28 1014.59 1014.52 1012.33 1009.92 1007.54 1007.24 1007.07 1006.39 1005.98 1005.27 1005.22 1005.58 1005.73 1005.81 1005.77 1005.37 1005.33 1005.82 1005.59 1005.08 1005.00 1005.66 1006.10 1006.12 1006.35 1006.13 1006.31 1006.64 1006.55 1006.39 1005.63 1005.10 1005.23 1005.91 1006.44 1006.82 1007.03 1007.07 1007.36 1007.86 1007.97
1018.52 1015.74 1013.72 1013.97 1014.36 1013.62 1011.24 1009.20 1008.17 1007.88 1007.40 1006.77 1005.20 1005.06 1004.67 1005.05 1005.65 1005.61 1005.35 1005.43 1005.58 1005.84 1005.95 1005.61 1005.67 1005.61 1006.41 1006.43 1006.71 1006.38 1006.68 1006.53 1006.13 1005.50 1005.21 1004.52 1004.59 1004.17 1005.78 1006.34 1006.81 1007.12 1007.66 1008.05 1008.10
1018.26 1015.15 1013.70 1013.74 1014.00 1012.22 1009.92 1009.01 1008.73 1008.08 1007.74 1006.90 1005.81 1005.18 1004.91 1004.97 1005.09 1005.19 1005.20 1005.68 1005.93 1005.83 1006.18 1006.16 1006.45 1005.74 1006.04 1005.59 1005.57 1006.04 1005.90 1006.52 1006.61 1006.27 1005.36 1004.95 1004.73 1004.67 1005.66 1006.76 1007.12 1007.40 1007.85 1008.03 1008.11
1017.65 1014.25 1013.37 1013.58 1012.35 1011.23 1009.66 1009.78 1009.97 1008.24 1007.63 1006.97 1006.59 1005.86 1005.29 1005.33 1005.15 1005.18 1005.31 1005.67 1006.41 1006.54 1006.39 1006.48 1006.52 1005.67 1005.27 1006.08 1006.39 1006.25 1005.95 1006.22 1005.95 1005.70 1005.52 1005.96 1005.41 1006.14 1006.63 1007.39 1007.56 1007.73 1008.01 1008.23 1008.19
1016.97 1014.40 1013.15 1012.91 1010.93 1010.10 1010.19 1009.61 1009.42 1008.52 1007.71 1007.08 1006.44 1006.20 1006.10 1005.56 1005.55 1005.57 1005.82 1006.47 1006.88 1006.79 1006.69 1007.08 1006.62 1005.78 1005.36 1006.05 1006.24 1006.13 1006.31 1006.67 1006.86 1006.84 1005.92 1005.63 1005.51 1006.80 1007.14 1007.60 1007.76 1007.78 1008.03 1008.09 1008.42
1017.56 1014.16 1012.58 1012.04 1011.73 1010.84 1010.11 1009.49 1008.95 1008.76 1008.28 1007.73 1007.07 1006.51 1006.19 1005.81 1005.95 1005.72 1005.87 1006.63 1007.05 1007.04 1007.51 1007.30 1006.67 1005.86 1005.07 1004.90 1005.40 1005.59 1005.97 1006.29 1006.53 1006.15 1005.29 1005.07 1004.98 1006.39 1006.98 1007.40 1007.87 1008.00 1008.19 1008.28 1008.54
1017.28 1014.73 1014.33 1011.82 1011.43 1011.11 1010.83 1010.15 1009.21 1008.62 1008.43 1007.99 1007.13 1006.78 1006.49 1006.09 1005.89 1005.81 1006.06 1006.61 1007.20 1007.75 1007.65 1007.47 1006.51 1006.12 1005.63 1005.76 1005.73 1005.46 1005.55 1005.91 1006.07 1005.79 1005.75 1005.12 1005.31 1005.30 1006.63 1007.16 1007.55 1008.10 1008.31 1008.57 1008.62
1017.14 1015.45 1014.63 1013.15 1012.55 1011.66 1011.43 1010.25 1009.64 1009.30 1009.05 1008.17 1007.75 1007.69 1007.24 1006.89 1007.04 1006.49 1006.83 1006.57 1006.44 1007.51 1007.24 1007.50 1006.64 1006.32 1005.87 1006.11 1005.95 1005.69 1005.56 1005.71 1005.79 1005.73 1005.76 1005.72 1005.37 1005.72 1006.58 1007.02 1007.63 1007.79 1008.46 1008.36 1008.72
1017.90 1017.07 1015.39 1013.40 1012.52 1011.52 1010.67 1010.50 1010.23 1010.44 1009.76 1009.36 1009.12 1008.55 1007.79 1008.49 1008.51 1008.15 1007.97 1007.82 1007.65 1007.03 1006.94 1006.98 1006.47 1006.50 1005.70 1006.19 1006.14 1005.70 1005.29 1005.13 1005.17 1005.51 1005.60 1005.16 1004.89 1005.78 1006.59 1006.95 1007.22 1007.61 1008.09 1008.47 1008.95
Wind_Speed
19 19 18 18 18 18 18 18 16 15 14 13 12 10 10 11 10 8 7 5 4 14 8 8 6 4 6 3 3 2 6 1 2 4 5 6 6 2 3 8 4 5 10 10 15
22 19 19 19 18 19 19 18 17 15 15 13 14 10 9 9 9 10 3 10 16 14 8 7 3 5 4 1 3 7 4 8 7 6 8 4 7 10 5 6 7 11 10 12 14
20 24 21 19 20 18 19 18 17 16 14 13 13 11 9 11 10 7 4 9 14 11 5 4 3 6 5 2 2 2 9 8 3 6 6 4 2 3 2 4 7 12 12 12 12
20 20 22 20 21 20 20 19 17 17 15 13 12 11 9 7 3 6 7 10 11 8 6 3 3 5 5 4 1 9 5 8 7 3 1 2 4 5 6 7 5 2 11 12 11
20 22 22 23 20 22 21 20 18 17 16 12 11 8 7 7 1 8 9 8 12 6 7 4 6 7 8 6 4 7 4 3 4 3 1 1 3 4 7 5 5 6 10 10 8
22 22 23 24 23 23 22 22 19 15 13 10 8 5 7 10 5 8 9 11 7 8 3 4 7 9 8 4 6 6 3 3 2 5 2 5 3 6 6 4 5 5 6 5 4
22 23 25 25 25 24 23 22 19 13 9 7 6 5 7 2 3 7 9 6 5 8 7 1 7 8 6 2 2 2 6 3 3 4 1 4 7 4 3 2 3 4 4 2 3
22 24 25 26 26 25 24 21 17 10 1 5 6 6 5 4 2 7 9 9 7 7 6 3 6 5 6 1 4 6 4 6 7 2 4 6 4 5 3 1 3 2 3 3 3
23 24 25 26 28 27 23 21 10 4 3 6 6 6 5 4 6 3 7 5 6 4 3 4 6 6 7 8 10 5 5 3 3 3 2 5 7 6 5 4 3 2 2 2 3
24 25 25 26 28 27 25 9 3 6 6 5 2 6 6 4 1 1 2 6 6 5 8 7 6 10 1 7 5 7 5 1 6 5 3 2 4 6 5 1 1 1 3 4 2
24 25 26 27 27 26 15 6 6 7 4 6 3 6 3 5 3 8 4 6 7 7 9 2 11 6 9 7 7 5 7 8 1 2 7 4 4 3 3 3 6 5 3 4 2
24 25 27 27 26 25 9 5 7 7 7 3 7 7 8 4 5 8 5 7 9 12 4 9 8 5 7 3 5 5 9 9 3 2 7 5 5 4 4 6 3 1 5 1 4
23 24 26 29 28 9 6 7 6 4 8 3 4 5 4 8 3 8 10 5 9 8 10 10 6 1 6 7 6 9 8 11 8 1 2 9 6 9 8 6 4 3 4 3 3
22 22 23 31 7 7 1 2 8 3 7 9 8 6 8 5 7 3 6 7 7 10 3 9 3 5 10 8 6 14 6 6 4 8 8 7 4 9 4 1 2 2 4 2 2
22 21 19 13 10 6 6 8 4 5 7 5 7 4 6 11 1 9 4 6 13 6 6 2 5 7 11 6 7 7 5 4 4 6 7 3 12 13 5 6 4 3 4 3 2
22 21 20 5 5 7 8 8 5 8 3 6 6 10 13 13 7 4 9 6 3 8 7 12 0 6 4 5 1 5 4 5 4 5 10 6 7 11 9 7 7 8 7 5 5
24 24 15 4 4 6 8 5 7 7 3 8 9 11 14 12 13 7 10 12 11 10 12 9 8 5 4 4 5 5 9 3 4 2 7 3 7 8 8 4 4 4 6 7 6
28 27 8 6 6 7 6 6 6 3 3 4 5 10 11 10 13 12 9 10 8 9 3 6 10 9 3 5 8 5 6 8 10 6 1 5 4 9 6 4 3 2 4 8 10
31 4 4 2 3 4 7 7 3 2 2 1 8 11 8 8 5 12 14 12 9 11 7 4 3 7 2 2 5 6 7 5 7 4 11 2 6 6 9 7 5 7 8 10 10
8 6 3 4 5 6 6 4 1 2 4 4 6 4 8 11 11 8 12 10 15 12 9 3 9 3 6 4 4 7 3 6 8 7 8 2 5 7 10 7 5 6 9 9 8
6 6 6 1 4 6 6 3 3 1 3 3 1 6 4 6 11 8 4 6 5 5 11 10 6 4 6 6 7 5 8 4 6 6 10 7 6 6 8 6 5 7 7 6 7
5 5 4 3 7 1 4 2 3 4 2 2 2 2 1 4 7 7 6 0 3 7 9 8 5 8 3 5 2 5 5 4 8 3 4 8 9 5 7 5 5 6 5 6 6
4 4 2 4 6 6 2 3 3 4 2 1 2 2 1 2 4 4 3 3 3 7 6 8 6 8 9 11 7 7 4 1 3 5 11 10 4 4 9 6 4 4 4 4 6
5 4 5 4 1 5 3 2 3 3 4 4 2 2 4 4 3 2 5 3 2 6 2 5 4 8 10 10 6 4 7 5 6 7 9 10 4 8 9 8 6 3 1 6 6
4 1 5 4 6 4 4 1 4 2 2 2 5 2 3 4 4 3 2 6 5 6 4 5 7 6 4 4 6 7 7 6 9 11 9 14 10 5 9 8 5 2 2 3 5
4 4 4 1 2 5 5 5 4 0 3 3 2 6 4 4 4 1 6 1 2 7 5 5 4 5 7 5 7 9 9 9 11 12 12 12 12 3 7 6 6 3 2 3 5
1 2 6 5 6 6 6 3 3 3 2 2 6 6 6 5 6 5 4 5 5 4 6 5 3 5 10 1 6 10 12 10 9 8 10 11 8 9 10 8 5 3 2 3 4
Wind_Direction
351 352 349 345 342 338 334 331 333 328 326 318 316 323 322 310 297 220 261 66 116 158 191 156 201 200 224 207 254 290 260 60 45 267 58 143 186 160 70 136 131 92 66 92 134
345 347 348 340 339 335 330 329 329 326 319 318 312 321 319 310 266 260 58 100 134 174 175 208 207 208 218 207 198 272 291 23 359 344 323 162 231 148 179 155 132 116 102 122 157
347 340 341 340 334 335 326 327 325 320 314 312 307 317 314 298 262 80 59 125 167 194 273 287 281 260 272 226 150 82 358 358 15 2 322 344 226 75 358 182 106 123 126 152 171
342 338 331 339 332 333 327 325 323 315 308 303 300 309 314 248 237 73 95 155 177 239 239 270 270 268 280 313 86 280 23 350 10 15 296 123 91 106 64 61 22 55 133 156 179
339 335 335 333 334 332 329 324 319 309 300 294 290 302 271 223 75 108 126 147 184 229 253 276 273 316 306 329 288 258 45 2 51 121 53 107 79 67 80 45 84 115 143 172 189
336 335 334 333 336 331 330 323 316 305 291 279 271 278 244 236 91 137 144 165 215 227 275 279 324 337 289 308 280 7 356 61 64 70 110 246 112 240 81 16 119 140 152 174 203
334 334 334 334 333 332 330 322 315 308 291 254 230 249 245 8 110 164 183 212 204 237 281 90 302 289 344 260 12 176 241 228 159 12 130 301 220 67 58 87 93 142 142 215 236
336 334 335 332 329 332 327 321 318 319 354 205 197 237 251 107 164 207 203 247 231 244 268 309 286 289 299 328 188 248 256 275 87 357 118 242 83 124 71 110 86 109 151 243 301
335 333 333 330 329 329 324 318 303 19 150 168 214 245 197 141 214 187 213 259 175 193 202 223 245 297 201 244 197 187 12 356 137 43 321 252 3 132 103 69 347 245 194 164 194
335 332 332 329 326 325 319 276 248 258 217 224 264 219 201 151 125 282 185 263 243 217 215 234 249 263 293 283 350 39 349 89 322 64 268 312 40 123 168 312 68 76 200 207 212
334 331 331 328 325 323 323 217 229 182 238 314 46 313 74 335 222 201 182 205 209 232 259 109 282 19 0 359 353 328 302 301 82 53 294 10 314 104 151 200 174 206 189 218 273
334 330 329 326 324 314 277 39 47 351 296 219 261 270 263 291 226 203 183 227 210 239 203 234 242 25 334 338 306 308 302 276 177 142 285 9 335 69 141 116 145 184 198 138 137
331 329 327 323 321 301 354 67 349 304 256 183 223 240 202 203 224 190 203 224 233 232 243 283 344 5 294 289 268 274 311 311 316 90 186 304 166 120 126 140 134 147 177 147 57
328 328 328 324 293 353 123 28 332 219 256 142 197 191 181 208 221 195 222 263 216 269 257 273 70 259 287 273 305 294 359 276 260 273 357 359 341 112 148 101 186 158 140 61 44
326 324 326 326 317 290 19 327 347 222 212 130 149 62 168 202 61 173 166 218 257 230 250 274 269 266 276 12 317 338 305 239 219 264 293 147 279 104 163 138 82 87 83 78 17
322 321 328 211 241 285 313 310 217 230 138 136 146 179 176 193 177 129 195 216 323 268 240 274 338 267 8 33 310 130 163 197 200 273 260 79 298 106 78 46 69 67 63 58 33
320 314 306 288 334 330 303 225 232 268 157 144 161 182 192 185 199 215 188 199 222 215 216 197 221 142 213 167 158 250 220 213 256 297 292 120 250 48 78 56 18 34 53 47 15
317 313 171 267 299 302 247 228 256 77 69 117 170 170 189 175 216 204 222 215 211 252 282 261 167 177 149 305 339 240 299 310 305 289 23 154 259 93 77 70 118 120 54 38 19
312 281 244 191 256 238 261 237 31 59 25 205 160 185 165 188 255 214 224 236 217 207 250 225 222 118 41 161 288 119 245 17 289 205 265 55 145 138 141 115 122 81 55 44 44
310 294 239 11 178 247 253 287 343 1 320 217 192 242 172 173 198 206 195 219 233 226 248 269 275 101 121 186 114 292 64 225 199 275 288 143 238 119 174 134 100 70 66 69 52
261 275 92 290 216 232 257 31 294 346 290 256 85 152 117 168 208 194 189 173 218 217 225 242 258 191 203 204 339 178 206 247 298 294 311 292 74 77 113 100 93 90 85 70 51
288 243 84 202 237 228 254 354 348 286 228 217 276 308 178 161 189 209 222 324 150 169 183 196 253 250 299 80 300 296 330 276 285 151 241 302 298 86 122 122 123 111 95 61 42
278 291 153 256 244 201 162 250 262 287 321 290 190 23 287 184 199 230 189 141 181 202 178 170 208 243 197 181 180 238 165 264 289 279 270 294 43 127 131 146 151 129 109 92 5
272 240 176 211 330 295 233 206 244 217 273 300 296 233 210 195 165 169 183 135 164 205 353 201 206 262 301 354 332 206 209 216 244 277 321 266 309 148 164 167 162 152 21 24 7
232 124 352 188 182 235 256 264 250 209 225 304 186 44 287 235 213 213 195 147 153 155 153 230 240 234 274 262 242 280 268 212 246 280 276 306 318 149 184 180 167 153 25 351 1
288 268 176 151 252 223 166 201 244 235 282 130 323 331 247 236 348 55 338 279 136 178 185 188 243 261 253 228 241 251 263 260 271 281 281 274 273 138 162 173 186 173 238 320 5
130 257 278 126 185 216 196 182 179 316 138 274 346 291 192 65 347 341 302 293 290 273 187 205 172 231 266 161 254 248 260 285 275 274 265 269 338 152 176 202 194 187 247 333 344